Theta_e
325 325 324 323 321 323 322 322 330 330 330 330 331 331 331 330 331 331 330 329 330 330 329 330 330 329 329 329 330 329 327 319 320 318 316 318 322 327 327 329 324 329 329 314 312 310 307 306 306 309 311 315 307 306 306 308 305 305 298 288 288 288 288 291 292 292 292 293 293 291 292 299 297 294 298 301 299 301 303 305 305 309 308 310 309 312 321 324
325 325 325 324 322 322 321 322 321 330 331 330 330 331 331 330 331 331 330 329 330 329 329 331 330 329 330 330 330 329 322 318 315 316 316 328 332 328 328 330 327 326 324 313 308 308 307 305 306 310 314 309 311 310 308 305 307 299 292 291 291 289 294 296 293 294 293 295 293 291 291 296 299 294 296 297 295 301 301 302 305 307 308 312 315 320 322 324
324 324 325 325 324 323 322 320 321 320 329 330 330 330 330 330 330 330 330 329 329 329 329 330 330 329 330 329 329 327 322 318 316 311 318 334 333 332 332 332 332 330 316 313 313 309 309 308 309 311 308 309 307 307 309 305 302 299 296 291 289 294 296 295 292 294 294 293 293 293 292 292 293 295 296 297 294 298 298 298 300 304 307 309 314 319 321 324
323 324 324 325 324 324 323 321 320 321 321 330 330 330 330 329 329 330 330 330 329 329 329 329 328 329 328 328 328 324 321 315 309 315 322 335 333 333 332 330 334 322 314 313 313 311 311 311 311 311 309 308 308 311 307 309 305 299 296 291 293 295 296 298 294 292 291 294 293 292 291 293 293 293 296 293 296 296 299 299 302 303 307 313 317 319 320 322
322 323 323 324 324 324 324 323 322 321 321 322 330 329 329 329 329 329 330 329 329 329 329 329 328 328 328 328 327 323 314 306 308 318 325 335 334 331 332 332 326 312 312 312 313 312 311 309 309 310 310 303 306 307 307 309 303 300 296 297 296 294 295 298 295 292 290 291 293 290 293 293 293 293 294 296 296 296 300 303 302 303 309 315 317 318 320 322
321 322 322 323 323 324 324 324 323 322 322 320 323 329 329 329 329 329 329 329 329 329 329 329 328 328 327 327 323 318 311 294 313 314 332 335 334 332 330 327 323 313 314 313 311 310 309 309 309 304 303 304 301 302 308 306 304 297 296 296 297 293 295 295 293 292 291 292 292 292 293 293 294 293 292 296 298 298 292 294 302 304 313 317 320 319 319 321
321 321 321 322 322 323 323 323 324 323 322 322 320 326 329 329 329 329 329 329 329 329 329 328 328 328 327 326 322 317 309 310 306 313 326 335 335 331 328 326 324 313 312 310 310 309 307 306 308 303 302 302 303 305 305 302 302 298 298 295 297 298 297 294 294 291 290 292 293 293 295 295 293 293 292 295 299 298 292 295 300 310 316 319 319 319 320 321
320 320 320 321 322 322 322 323 323 323 323 322 322 320 328 329 329 329 328 329 329 329 329 328 328 328 326 321 316 311 309 308 312 313 330 334 331 327 323 314 313 312 310 309 309 309 307 304 305 304 301 301 300 301 300 301 302 300 298 295 294 295 295 293 292 291 290 290 291 292 295 295 293 292 291 293 299 297 295 307 311 314 316 317 318 318 319 320
319 320 320 320 321 321 321 321 322 322 323 322 321 320 321 329 328 328 328 328 329 329 328 328 327 327 327 320 314 308 307 317 316 317 330 328 323 317 313 310 312 310 309 309 310 310 308 303 305 306 301 302 304 298 298 298 298 296 294 294 294 295 296 295 292 292 291 289 290 293 293 293 290 291 293 295 295 293 302 309 311 313 315 316 317 318 319 319
318 318 320 320 320 320 320 321 321 322 322 322 321 320 319 325 328 328 328 328 329 329 328 328 327 326 322 316 313 303 313 319 325 327 327 323 315 311 311 310 310 309 307 309 310 308 306 305 306 308 308 302 305 300 304 299 298 297 295 292 294 296 296 295 295 292 292 293 290 293 292 292 292 293 293 293 294 298 307 308 308 312 313 315 316 317 319 319
317 317 319 320 319 320 320 320 321 322 322 322 321 321 319 319 328 328 328 328 328 328 328 327 327 325 318 316 308 302 315 323 326 326 322 318 312 309 308 309 311 309 309 309 308 309 311 308 308 308 306 302 304 301 302 301 300 297 295 294 295 295 295 295 294 293 292 294 290 293 292 291 291 292 294 297 293 298 303 307 310 310 312 314 315 316 318 318
316 317 317 318 320 319 320 320 321 322 322 322 321 321 320 318 324 327 327 328 328 328 328 328 326 323 319 314 309 310 316 322 326 324 319 316 311 310 310 311 311 310 309 306 308 308 310 309 309 306 300 305 298 299 301 304 302 299 296 295 295 295 295 295 295 294 292 294 291 292 292 289 289 290 296 295 294 295 298 306 309 310 310 311 314 315 316 317
316 316 317 317 319 319 319 319 320 321 322 322 321 320 320 318 318 327 328 327 328 328 328 327 325 322 316 307 312 316 317 322 324 322 318 316 311 311 312 312 313 313 311 309 307 310 310 310 309 305 305 303 301 298 303 305 300 299 298 293 294 292 292 295 292 291 291 294 291 293 290 289 289 294 297 294 298 295 297 302 308 309 309 310 312 314 315 316
315 315 316 317 318 319 319 319 319 320 321 322 321 320 320 319 318 324 328 327 328 328 327 327 324 320 315 308 314 316 318 324 322 319 316 315 313 310 311 312 311 311 316 310 310 310 310 310 310 307 306 302 299 305 301 301 300 293 295 296 292 292 289 292 294 291 293 292 290 293 290 288 288 292 296 293 298 296 295 298 304 308 308 309 311 313 315 316
315 316 316 316 317 318 318 318 318 319 320 321 321 321 320 319 318 320 328 327 328 328 327 326 322 316 309 311 316 319 325 322 318 317 317 314 310 308 309 310 309 310 313 312 310 310 310 308 307 303 299 299 301 299 295 296 297 297 293 290 290 290 290 291 292 293 294 293 291 293 287 290 292 294 294 294 299 295 295 295 299 305 308 309 310 312 314 316
314 314 315 316 317 317 318 318 318 318 318 320 320 321 320 319 318 317 325 327 328 327 326 319 317 315 309 305 312 325 320 314 314 318 318 316 313 310 309 307 308 311 312 309 311 309 308 308 302 300 298 299 297 294 293 292 292 294 292 287 289 288 290 291 293 292 293 291 293 292 289 284 289 293 292 290 298 297 296 295 295 301 306 308 310 312 313 314
314 314 315 316 316 316 317 318 318 318 318 319 320 320 319 318 318 318 318 327 326 326 321 314 317 317 303 312 319 313 311 316 319 316 316 315 314 309 307 306 305 307 309 309 308 307 306 303 301 301 304 295 294 295 290 288 288 288 290 288 289 290 288 289 294 294 292 292 291 290 287 286 289 289 291 291 293 296 296 296 296 298 303 308 309 310 312 313
313 314 314 315 315 316 317 317 318 318 318 319 318 318 317 318 318 317 314 322 325 322 320 321 317 310 305 308 302 307 316 314 315 316 315 315 311 309 308 304 304 306 307 304 306 302 303 299 300 295 297 295 295 294 290 286 289 289 287 286 288 288 289 292 292 295 291 292 290 289 287 288 291 294 294 290 291 293 295 297 296 296 298 302 306 308 310 311
313 313 314 314 314 314 315 316 316 317 317 318 318 319 318 319 317 314 309 317 313 306 303 303 306 297 294 303 311 313 314 316 317 315 309 309 309 310 307 308 307 304 301 301 301 301 301 298 299 294 291 292 293 294 293 294 294 293 291 290 289 289 289 287 293 295 292 290 289 288 288 288 291 293 296 292 290 292 293 294 292 291 296 298 301 304 307 310
312 312 313 313 313 314 314 314 315 316 317 315 314 313 311 306 304 301 308 311 310 308 308 309 311 309 306 308 308 313 317 318 310 312 310 311 308 306 305 306 304 307 301 298 297 299 301 293 290 290 292 293 295 296 295 292 294 294 292 290 290 290 290 290 289 291 291 290 289 290 289 288 290 292 294 297 291 290 290 291 293 293 292 295 298 300 303 306
311 311 312 312 313 313 313 314 314 315 316 313 310 306 298 300 294 291 299 305 313 313 310 310 312 308 308 310 311 311 307 309 312 309 309 314 308 305 300 304 300 296 299 299 297 299 300 293 292 295 296 295 295 295 292 292 293 293 291 289 289 287 288 289 288 290 291 290 287 288 288 289 289 291 293 295 290 292 292 292 292 292 293 293 295 298 299 303
311 311 311 311 312 312 313 313 313 314 315 312 308 303 306 307 306 311 307 297 308 313 309 311 313 306 312 311 313 314 312 305 306 307 310 310 304 301 299 300 297 294 297 298 297 294 292 292 296 298 298 297 295 295 293 293 291 291 291 288 288 288 287 289 290 291 291 290 288 289 288 289 289 291 293 294 293 294 294 294 294 293 293 292 292 293 296 298
310 310 310 311 311 312 312 313 312 313 310 308 304 305 305 311 313 315 313 305 301 311 307 309 308 307 308 311 312 315 306 302 300 305 306 308 303 302 299 297 296 296 296 297 293 291 288 292 297 298 297 296 293 294 293 292 292 289 287 286 288 288 289 287 291 290 291 289 288 286 285 288 289 290 291 294 293 292 292 292 293 292 293 293 293 294 295 295
309 310 310 310 311 311 312 312 311 309 306 307 306 306 311 312 315 314 306 297 297 306 307 309 310 308 306 305 312 311 305 304 305 302 310 308 301 303 299 297 295 295 293 295 295 293 291 295 298 296 296 296 293 292 292 292 290 290 289 287 285 286 288 288 287 289 290 289 290 288 287 288 288 288 290 293 292 292 294 290 291 291 291 294 293 292 293 294
309 309 309 310 309 310 310 311 304 303 306 307 305 310 312 311 314 313 303 297 296 297 310 309 311 310 311 316 315 307 307 307 306 308 308 308 302 300 298 301 297 292 294 295 294 292 289 294 297 294 292 293 291 290 292 292 289 289 289 289 288 288 288 289 290 288 286 286 289 288 282 286 288 288 290 293 289 288 289 290 292 293 292 291 291 293 294 294
308 309 309 309 309 309 309 303 302 305 304 301 305 310 313 313 311 306 303 289 285 295 304 297 312 303 316 308 311 309 309 300 307 308 309 309 308 302 299 296 298 291 294 294 293 293 293 293 296 293 292 291 291 291 291 293 289 288 289 291 290 290 290 290 289 289 283 282 289 289 285 284 284 286 288 289 290 291 292 290 291 292 293 292 292 293 293 294
308 308 309 309 309 309 302 295 305 305 299 301 307 312 312 313 311 309 295 284 280 295 294 306 305 305 313 309 309 309 292 295 307 308 308 311 304 307 296 294 294 295 297 296 291 288 291 292 293 293 292 290 289 288 290 293 289 287 290 292 290 289 289 289 290 288 285 287 288 286 286 282 283 289 288 286 286 288 289 291 290 290 291 292 293 293 293 295
307 308 308 308 309 308 301 304 301 300 300 305 311 312 313 311 310 308 292 278 276 300 294 299 304 315 311 310 311 304 302 305 296 301 309 308 307 301 299 293 293 293 295 294 286 290 292 290 291 290 290 289 289 290 291 293 290 288 290 292 290 290 290 290 289 286 284 283 281 284 284 281 283 285 284 284 287 287 287 289 291 291 291 292 293 294 294 295
307 307 308 308 308 309 307 303 301 299 305 306 311 312 312 309 308 296 284 276 293 293 311 299 314 308 307 309 305 305 302 305 297 303 307 306 306 301 295 295 296 295 296 295 291 287 290 293 293 293 291 289 290 290 292 293 290 290 293 294 292 292 291 290 286 286 285 281 281 283 283 281 284 282 287 285 285 288 289 288 290 291 292 293 294 294 295 296
307 307 307 308 306 304 303 305 301 304 306 310 310 312 310 307 298 284 280 272 295 283 298 301 301 298 305 300 301 302 300 301 301 302 304 300 301 302 297 301 295 293 291 293 292 290 290 295 298 294 291 292 292 291 294 295 292 292 292 291 290 288 286 285 285 285 284 279 282 284 283 282 278 282 287 285 289 291 287 288 288 287 288 290 292 294 295 296
306 307 307 307 300 302 301 298 301 306 306 309 308 308 306 298 285 280 275 282 294 288 300 297 296 305 299 297 293 300 299 297 297 299 295 300 296 299 296 293 296 291 290 290 289 290 290 293 293 292 294 291 294 290 292 295 293 293 289 288 288 285 285 284 283 285 279 279 283 285 284 282 279 281 284 289 285 284 291 291 293 293 290 291 292 293 293 293
306 306 307 304 304 305 298 296 302 306 307 309 307 301 297 280 286 277 277 297 283 288 289 292 300 300 299 301 297 297 293 295 297 297 293 293 291 291 293 286 290 283 283 285 284 287 286 288 289 290 293 294 291 290 288 292 291 292 290 289 284 280 281 277 280 277 278 278 281 277 282 282 281 287 285 285 287 287 285 287 291 292 291 289 289 290 292 291
305 305 306 305 305 301 302 303 305 306 308 308 303 300 287 280 274 282 285 286 282 295 288 299 297 299 299 297 294 297 297 291 297 296 296 294 292 292 295 292 293 290 281 286 285 285 285 287 288 289 290 293 293 287 283 284 288 289 288 286 283 278 276 275 278 274 273 278 280 279 282 282 288 286 289 292 295 291 288 287 288 290 291 290 290 290 289 290
305 305 301 303 303 303 303 304 305 306 305 305 297 289 285 277 276 291 286 285 284 294 297 295 298 299 298 293 294 296 291 295 296 294 295 290 291 288 291 293 294 289 287 287 284 284 281 281 286 287 285 291 293 291 289 286 288 289 291 289 284 281 276 274 275 275 276 278 279 280 279 279 280 285 286 293 295 298 293 290 289 288 289 291 289 289 290 290
304 303 301 301 302 303 303 304 305 306 305 300 291 285 277 276 284 283 285 285 285 291 293 299 296 295 294 295 297 297 296 289 296 294 292 290 288 289 289 290 293 291 289 284 286 285 284 284 285 290 288 291 290 291 292 289 287 288 289 289 284 283 282 276 273 277 275 275 274 276 280 281 284 286 288 287 287 288 289 289 287 289 290 289 290 291 292 293
302 299 301 298 299 301 303 304 305 305 302 294 285 278 277 283 281 287 286 292 289 286 291 297 296 292 292 291 294 295 296 292 294 293 291 292 292 290 292 292 291 292 290 286 287 282 283 282 286 286 287 290 290 289 289 292 281 286 288 285 286 287 285 278 277 279 274 273 277 275 279 283 282 290 294 291 286 288 287 288 288 289 289 288 291 293 293 294
296 298 294 296 297 301 303 304 305 303 299 292 285 279 285 288 291 290 293 292 288 291 291 287 289 290 287 286 289 292 292 295 293 292 286 293 289 292 291 291 295 293 294 292 286 284 285 281 284 287 284 287 286 292 290 292 289 288 283 287 288 287 286 283 277 274 273 272 274 274 280 280 278 281 287 292 288 289 288 288 289 289 287 288 291 292 293 294
295 295 295 295 298 302 304 305 303 300 294 288 281 285 290 285 294 291 294 294 294 293 289 288 289 295 287 287 287 290 292 290 289 291 287 292 287 296 292 291 294 294 294 290 288 284 288 279 283 283 285 288 289 290 288 289 287 289 287 291 288 280 281 280 277 273 270 270 269 271 276 277 280 285 282 284 289 292 293 291 287 289 289 289 290 292 292 293
295 293 287 294 300 303 304 305 302 295 289 282 283 283 287 289 294 293 295 296 295 293 288 289 288 290 290 288 289 291 293 287 291 289 287 289 287 293 292 294 290 294 293 289 287 286 286 279 281 285 285 287 288 289 282 286 287 287 288 289 287 284 282 278 281 274 276 273 270 271 272 279 284 282 285 287 284 288 290 289 289 289 290 292 292 293 293 292
290 287 286 297 301 304 306 304 296 292 286 280 284 284 290 289 292 295 297 296 291 292 289 289 292 288 291 290 290 287 293 292 291 289 291 291 290 294 292 295 291 291 294 289 286 290 284 284 277 283 285 287 283 286 285 287 284 284 284 285 285 284 283 282 280 280 278 268 267 269 271 279 281 285 287 290 291 291 289 290 289 290 291 291 291 291 292 291
291 286 287 299 303 306 305 299 289 285 284 288 290 288 289 288 293 295 296 298 296 297 294 291 292 288 290 290 289 293 291 291 291 289 290 290 290 284 293 294 293 291 292 287 287 289 282 282 280 281 282 283 284 287 287 290 290 288 287 285 287 284 281 280 278 279 274 275 271 268 275 282 280 285 290 290 293 294 295 292 292 290 289 289 289 289 288 290
286 281 285 300 306 307 299 287 287 292 288 286 285 288 287 296 293 292 295 297 297 293 295 295 294 292 292 292 292 292 291 290 291 289 289 289 292 290 293 297 294 294 291 288 288 287 284 283 283 279 280 282 286 285 285 284 289 290 289 287 288 288 284 279 277 276 275 276 273 270 270 280 287 288 289 290 291 292 295 294 291 291 289 287 287 287 287 287
285 284 296 304 308 304 295 287 291 288 285 289 293 292 294 293 292 292 292 295 293 295 292 292 293 291 291 291 293 292 293 289 291 290 291 291 292 291 289 295 294 293 294 287 289 285 291 281 281 278 283 284 286 284 285 286 289 287 287 286 286 285 286 282 278 276 280 275 276 275 273 280 285 284 286 285 285 288 289 288 288 288 288 287 286 286 287 288
286 287 295 307 308 304 292 282 281 284 288 291 290 289 293 292 293 291 292 294 293 293 292 291 293 295 291 293 294 291 295 287 292 292 289 288 291 289 294 294 295 292 292 289 290 292 285 280 283 276 275 278 282 285 285 286 286 286 286 284 284 284 285 281 280 278 278 278 277 275 276 276 286 283 283 284 284 288 290 287 285 287 289 288 287 287 286 287
289 294 298 301 306 302 289 291 289 287 287 286 287 287 289 291 293 294 293 292 295 295 294 292 293 293 289 292 293 295 296 293 289 293 287 288 290 287 295 294 296 293 295 293 295 290 281 284 284 278 275 274 273 276 278 282 284 282 279 284 285 286 284 283 281 276 278 278 280 277 280 281 281 283 287 285 283 286 288 287 285 286 287 287 287 287 287 286
287 285 294 296 300 298 296 298 293 289 287 286 285 287 290 288 292 295 296 294 296 295 295 295 295 295 291 291 290 290 290 288 291 288 287 284 284 286 293 294 295 294 294 295 294 292 280 283 286 285 283 281 283 283 285 287 284 283 283 285 284 285 286 286 281 279 281 281 281 284 284 281 284 286 284 287 283 286 289 287 286 288 289 288 285 286 285 286
291 288 290 287 295 294 292 294 292 291 286 289 283 287 286 288 290 291 297 291 295 295 294 294 292 291 288 291 290 290 289 285 287 289 287 285 283 285 292 293 294 294 294 294 294 288 281 283 284 285 285 285 281 281 286 288 285 284 283 284 285 284 285 285 284 283 286 280 280 286 285 284 283 282 284 285 286 285 286 288 288 286 286 288 288 286 288 286
284 291 294 295 289 285 287 287 291 289 290 290 286 289 287 287 288 287 293 295 295 297 292 291 293 293 292 291 291 287 286 285 287 285 285 284 285 286 288 291 292 293 294 291 294 291 286 284 285 285 285 284 282 285 286 287 286 285 285 285 284 286 286 285 286 288 286 283 282 284 284 285 285 285 286 286 287 289 290 289 287 286 285 285 285 286 287 287
289 292 293 299 289 291 290 291 292 290 288 288 288 288 286 287 287 290 291 288 292 293 295 287 290 292 291 293 292 287 287 284 284 286 286 285 287 287 286 287 290 291 293 289 291 287 288 284 283 285 285 283 281 284 285 286 285 285 286 286 287 286 286 287 287 289 288 286 287 281 283 284 286 288 287 288 286 286 286 284 284 285 285 285 285 285 287 287
288 290 286 292 293 292 292 291 290 289 287 289 285 286 288 287 287 290 292 291 287 291 295 291 291 292 292 292 292 288 288 292 290 285 288 288 286 289 287 289 288 290 292 289 290 286 290 284 288 282 280 279 281 282 283 284 284 284 285 287 287 287 287 287 288 288 288 287 288 284 281 282 284 285 286 285 283 284 285 287 288 286 285 285 286 286 287 287
290 290 294 292 288 290 291 290 289 288 286 288 286 287 288 288 288 291 291 294 292 290 292 291 293 293 293 293 293 292 292 293 292 292 290 291 287 291 289 288 292 287 289 288 289 284 289 278 283 281 280 275 278 280 280 280 282 283 283 284 285 285 284 286 286 288 285 285 286 285 283 285 285 287 286 286 286 286 287 287 287 287 285 284 285 287 287 287
291 293 293 294 288 292 288 290 290 288 284 288 287 287 288 288 291 293 289 293 294 295 295 295 295 293 291 292 292 294 295 296 295 296 294 295 295 290 289 290 292 290 288 288 284 286 284 279 279 279 281 274 277 279 279 278 279 275 280 285 286 287 288 288 287 287 289 289 285 284 285 286 289 291 290 286 285 286 286 286 288 287 286 285 286 287 288 288
Wind_Speed
13 12 11 11 6 12 10 12 18 22 23 22 22 20 20 19 18 18 18 18 14 16 13 11 12 12 12 12 10 9 8 3 1 2 2 4 6 10 9 6 7 10 7 1 3 8 4 5 6 3 6 4 4 2 4 1 1 0 1 4 1 3 4 5 6 8 2 0 1 4 5 4 3 1 1 1 3 2 0 2 3 1 2 2 3 2 5 11
10 12 12 11 10 14 14 13 10 18 23 24 20 21 20 20 19 18 18 17 16 16 14 10 12 12 12 13 11 10 7 4 7 5 10 3 11 12 11 9 12 12 2 1 6 7 10 4 5 6 6 3 2 1 5 1 1 1 2 2 6 4 5 6 4 6 2 1 0 1 1 4 4 6 2 3 2 2 1 3 0 2 4 2 0 5 10 12
8 10 12 13 12 11 12 8 12 12 17 22 22 23 22 20 20 19 18 16 17 16 15 13 10 12 12 13 11 11 7 2 4 15 8 7 11 15 12 11 8 9 5 7 0 3 7 9 4 9 5 4 5 1 3 3 4 1 2 3 5 6 4 4 4 5 2 1 2 0 1 3 2 1 1 3 2 1 7 6 2 5 7 3 3 7 10 12
7 8 9 11 13 12 11 11 14 14 12 19 22 23 22 21 21 20 19 17 17 16 16 15 16 15 14 14 13 6 6 4 9 6 6 11 13 12 12 11 9 6 8 6 5 8 10 9 8 7 3 4 1 1 1 3 2 1 1 3 3 1 1 3 6 6 3 1 0 1 1 1 3 3 3 3 3 5 6 8 12 15 10 9 9 10 10 12
8 7 7 9 11 13 13 12 13 10 13 13 22 21 23 21 21 21 21 19 18 17 17 16 16 16 15 14 12 7 6 2 5 11 11 17 15 13 9 12 11 6 9 9 12 8 7 8 5 3 3 3 2 2 2 0 1 1 4 3 2 0 1 4 3 3 1 1 1 0 3 4 1 1 4 7 9 9 12 12 11 6 8 12 13 11 10 13
8 8 6 6 7 10 13 13 12 12 9 9 13 22 22 23 22 21 22 20 19 18 17 16 15 15 14 12 7 6 10 9 0 2 9 21 18 14 14 13 12 12 13 8 7 8 12 4 8 3 1 4 7 8 1 2 1 4 3 3 4 3 2 1 2 1 3 1 2 1 3 2 5 2 4 9 12 4 1 3 7 5 6 6 10 13 12 13
7 7 6 5 6 7 10 13 12 11 11 11 10 16 24 24 23 22 21 21 20 19 18 17 15 14 13 8 3 6 12 5 2 4 2 17 17 16 15 13 13 12 12 10 10 6 5 8 5 5 5 2 2 4 2 2 0 1 7 1 2 2 5 2 4 4 2 6 3 2 1 3 1 6 1 5 12 5 4 2 3 7 9 9 13 14 18 18
6 7 6 5 5 6 7 11 12 11 11 10 11 10 19 24 24 23 22 22 20 20 19 18 16 14 13 6 7 7 7 11 3 4 9 10 13 15 15 9 11 10 11 15 14 10 9 11 9 4 3 9 4 7 5 4 1 4 5 2 4 2 3 2 3 4 3 6 1 1 2 6 8 4 2 7 14 4 2 3 5 7 9 8 10 13 13 15
5 5 6 6 4 4 5 6 10 12 10 9 7 8 12 22 24 24 24 22 22 21 20 18 17 16 12 6 8 7 15 5 1 5 11 9 7 10 13 7 6 11 8 7 7 14 11 7 6 6 7 5 3 8 4 7 4 4 4 1 3 3 3 2 3 1 2 2 2 3 7 5 4 2 4 10 8 2 2 4 5 7 9 11 12 14 14 14
7 6 5 6 5 5 6 6 8 11 11 9 8 9 8 16 25 25 25 24 22 21 20 19 17 18 11 7 4 14 3 7 3 7 10 12 10 8 8 10 9 9 10 4 4 7 7 7 12 4 8 4 3 5 1 7 2 4 4 4 3 3 3 1 2 2 0 2 3 4 5 4 1 4 7 1 4 5 4 5 4 7 11 12 11 12 11 14
8 7 6 5 6 6 7 8 8 10 11 10 9 8 8 10 21 26 26 25 24 22 21 20 19 16 10 8 11 13 0 5 5 8 13 13 14 11 8 9 8 8 11 8 8 7 1 6 6 4 0 3 4 1 2 2 2 2 3 2 4 5 3 4 1 6 1 3 6 6 5 1 0 0 8 6 0 5 8 5 7 6 7 9 10 11 10 10
8 8 8 7 6 7 8 9 9 10 11 10 9 8 9 7 16 25 25 25 25 23 22 20 23 11 7 10 12 8 4 2 7 9 11 15 12 11 8 8 7 6 13 12 7 3 7 5 7 4 3 5 5 1 2 4 1 1 1 4 3 3 4 3 5 2 4 3 5 5 2 4 1 6 10 6 3 4 5 6 7 8 7 7 7 8 8 11
8 8 8 8 6 6 8 9 10 10 10 10 9 7 7 7 11 22 24 24 24 24 23 23 17 9 9 15 11 1 2 3 8 11 9 5 7 4 5 6 5 4 8 13 8 4 5 9 5 3 0 4 6 3 1 3 0 0 3 1 4 4 5 5 3 1 2 2 5 3 9 5 6 9 12 2 6 4 4 5 6 7 6 6 7 8 8 7
7 8 8 7 6 4 5 8 9 11 11 10 8 8 9 8 8 16 25 24 24 24 22 23 13 11 12 6 0 2 2 4 9 11 11 9 12 4 6 4 4 4 3 8 8 7 4 3 5 5 1 4 3 1 4 1 2 2 1 1 3 1 5 1 3 5 5 2 5 3 11 5 4 7 8 2 4 8 8 7 7 7 7 6 7 7 9 9
8 7 8 8 7 5 5 7 9 11 11 11 9 9 9 9 8 12 23 22 24 24 24 20 11 10 11 3 2 2 6 5 12 10 11 14 13 7 7 5 5 4 4 9 6 5 7 7 7 4 2 1 4 2 3 1 1 0 2 6 0 7 3 4 1 6 10 0 1 4 9 9 7 10 4 5 5 5 7 8 8 8 8 8 7 9 9 10
8 8 7 8 7 6 7 6 7 10 11 10 11 8 7 8 8 8 18 25 26 25 18 16 12 9 3 8 4 10 6 10 11 11 6 12 15 12 9 7 6 7 8 3 5 5 4 5 3 4 4 3 3 5 4 3 0 1 4 1 3 1 4 7 0 2 5 2 1 8 8 1 4 8 0 2 5 7 9 7 7 9 10 9 9 9 9 7
9 8 8 7 7 7 7 7 7 6 9 11 10 10 7 7 5 8 15 24 18 16 17 12 15 13 7 1 7 15 8 5 10 5 6 3 7 13 13 10 6 8 7 5 5 7 3 4 0 2 1 4 4 5 4 4 0 2 1 6 2 5 2 6 3 0 2 1 3 3 6 5 5 3 1 1 5 3 5 8 9 9 9 9 7 8 9 10
10 9 8 6 7 7 6 7 6 7 9 9 8 9 6 6 5 8 9 13 13 13 12 1 12 10 8 5 15 16 11 10 11 11 7 4 12 14 13 8 6 12 11 7 1 8 1 3 1 5 3 4 6 7 10 9 11 10 8 6 7 4 7 5 5 2 1 1 4 2 7 7 9 11 6 4 5 7 9 11 5 5 5 6 7 9 10 11
10 9 8 7 6 6 5 6 7 6 7 9 11 10 8 4 4 4 5 7 13 9 11 11 14 17 12 22 13 14 11 13 11 17 9 12 6 7 7 6 14 18 9 9 5 10 1 4 1 3 10 8 10 10 13 7 8 9 8 8 2 6 4 5 2 3 2 3 5 8 9 5 10 11 15 5 6 7 10 6 5 6 6 7 8 9 9 11
9 9 9 8 7 4 5 6 7 7 8 6 4 3 2 3 3 3 4 10 18 20 19 26 29 7 12 14 12 8 10 14 14 5 13 9 14 9 8 12 7 3 14 11 9 9 6 9 11 14 11 12 14 16 5 2 3 4 4 4 8 7 2 0 1 1 3 2 7 8 9 8 8 11 13 14 4 4 5 6 8 8 8 9 10 11 12 12
8 9 9 8 7 6 5 6 7 6 8 3 4 5 5 8 7 10 8 9 17 19 11 15 24 11 7 18 18 21 15 5 11 14 14 12 14 17 7 8 9 9 4 6 13 7 9 11 16 13 10 11 10 7 4 3 4 6 5 5 6 4 7 1 1 2 2 1 3 3 4 9 10 10 11 12 3 9 9 9 10 11 10 10 10 11 12 16
9 9 9 9 8 8 8 7 6 7 8 3 7 7 2 2 3 2 2 11 16 20 0 13 19 5 5 18 21 23 15 10 10 12 7 15 15 16 11 12 13 12 8 9 8 9 10 17 10 6 6 6 7 6 6 7 4 4 5 4 2 5 2 3 3 3 1 2 8 8 11 11 10 11 14 14 11 8 9 11 11 11 10 10 9 11 12 9
10 10 10 9 9 9 9 7 7 7 3 4 7 9 9 1 2 3 3 7 10 13 9 12 17 9 9 9 12 18 19 16 18 18 17 14 19 11 19 13 13 12 12 13 13 10 8 10 8 7 7 10 7 9 7 5 4 5 4 6 9 3 6 4 2 3 2 3 2 3 6 8 8 8 13 15 9 8 7 8 10 8 10 11 13 15 13 12
12 11 10 10 8 9 9 8 8 6 6 7 9 13 2 2 2 2 2 6 5 10 13 10 14 12 14 16 13 22 24 11 15 20 10 11 16 9 13 17 16 12 13 17 17 17 10 5 9 11 10 12 11 7 10 8 7 3 7 5 4 4 3 2 1 3 5 2 1 5 9 10 9 9 8 10 7 8 12 5 8 8 8 10 7 5 8 14
12 11 11 10 9 7 8 5 4 4 2 7 12 10 2 2 2 1 5 7 9 8 2 4 7 5 11 3 11 12 9 6 13 17 15 18 12 12 9 6 9 13 15 12 6 6 0 5 9 10 7 8 8 8 12 10 8 5 3 5 6 7 5 1 2 4 4 5 2 4 4 15 6 10 14 10 3 6 6 8 13 13 11 9 9 12 10 10
13 12 11 10 9 7 4 4 4 4 6 10 6 3 6 4 6 1 6 5 8 5 8 14 7 11 6 10 10 7 15 12 13 11 13 15 13 15 10 9 6 15 16 15 11 3 4 5 16 15 13 11 11 11 9 9 7 7 8 10 7 6 6 3 1 2 3 5 1 0 11 11 2 8 8 7 10 14 9 9 12 11 11 8 11 11 11 12
14 13 11 10 8 3 2 6 3 7 9 10 10 6 7 7 8 2 6 4 13 8 14 4 11 6 9 16 17 17 18 9 8 12 12 9 14 5 21 13 5 2 7 5 1 7 5 9 6 7 9 11 9 10 8 13 8 7 6 11 7 6 5 4 2 3 3 1 7 3 4 9 11 13 3 3 8 12 11 15 11 10 8 10 11 13 12 13
15 13 12 10 9 7 4 2 3 7 12 1 8 9 8 9 9 2 5 8 8 13 9 6 4 4 8 14 18 14 5 24 14 13 14 7 5 7 6 20 16 19 14 9 15 1 13 8 11 10 8 8 12 6 7 11 8 3 7 11 8 9 6 4 3 2 2 3 7 3 1 3 11 4 5 3 9 12 14 14 12 10 11 12 13 14 14 14
15 13 11 9 8 13 9 7 1 12 6 3 4 6 7 9 8 8 4 7 2 5 2 12 3 6 11 16 17 6 12 13 11 14 7 6 6 4 9 14 8 17 15 14 9 1 2 14 15 16 13 13 5 7 12 12 8 2 11 8 4 4 2 3 2 2 2 1 14 6 2 5 16 3 8 5 8 18 12 8 12 11 12 14 14 14 15 13
16 15 14 11 7 7 8 6 14 17 3 5 5 8 10 8 8 11 10 8 3 2 3 3 11 10 19 15 12 10 16 4 5 9 11 8 3 2 3 8 12 12 6 2 2 3 2 3 11 9 11 4 6 3 9 13 4 6 6 8 5 3 2 3 1 2 0 7 8 6 3 3 10 7 12 9 15 9 3 7 6 5 7 10 11 10 11 11
17 17 15 12 6 3 2 9 17 13 4 3 7 8 10 6 12 11 16 4 6 4 2 13 14 19 23 23 13 13 14 11 15 18 7 6 6 1 14 9 4 6 6 6 2 2 4 7 6 3 4 4 7 5 1 8 7 12 3 6 8 2 2 1 1 0 3 10 1 7 7 6 10 5 6 9 1 6 10 11 12 12 11 11 10 10 11 9
19 18 16 10 6 4 11 14 15 4 8 8 13 9 10 14 7 16 5 7 7 7 8 4 12 21 25 21 12 17 14 12 15 20 16 14 14 14 17 17 16 12 11 13 9 2 5 6 1 2 2 12 8 10 1 6 4 7 7 8 11 4 3 3 1 5 10 8 2 1 7 1 18 20 3 3 8 8 8 8 10 11 10 8 7 7 7 5
21 19 19 12 8 9 14 18 2 3 10 13 12 12 11 11 19 15 2 11 3 11 6 3 16 23 23 22 15 15 14 15 17 18 21 16 18 11 9 10 14 10 15 12 9 6 2 1 3 3 4 5 12 12 6 5 7 8 11 10 9 7 6 7 8 1 4 3 3 3 1 8 12 9 12 11 15 8 8 10 10 10 11 8 6 5 5 5
22 18 11 7 10 12 16 12 6 8 12 15 15 12 11 15 12 6 14 3 3 4 13 14 12 23 27 19 16 18 8 9 23 15 19 13 14 14 9 6 16 7 4 12 12 13 11 4 12 13 8 8 13 11 13 5 16 13 6 10 6 4 5 9 6 12 7 5 2 3 3 8 4 5 1 15 16 19 8 6 7 8 10 9 4 5 6 8
21 16 12 11 11 16 20 12 10 14 12 15 15 16 19 10 6 9 12 5 2 2 12 17 16 18 18 14 12 18 8 8 18 21 17 21 16 15 17 15 16 6 9 15 5 2 14 5 2 11 0 13 14 6 10 9 5 4 3 2 3 9 4 6 2 4 2 2 0 3 8 3 5 3 4 6 10 10 10 8 5 10 8 5 6 8 9 9
16 10 8 11 12 19 17 11 13 15 16 18 17 18 20 12 12 4 7 8 3 5 7 16 20 18 16 11 8 19 4 9 16 16 11 17 18 21 21 15 18 16 16 15 10 7 1 6 1 5 3 16 11 6 6 12 10 9 6 14 9 0 1 4 2 1 4 1 10 2 8 9 7 12 15 8 2 8 7 10 8 10 7 5 9 11 9 10
11 9 11 14 19 21 14 14 14 14 18 18 18 16 12 9 9 5 4 16 10 13 9 20 16 18 14 11 12 13 6 5 20 14 9 13 8 8 14 6 14 17 16 12 7 2 15 4 1 6 11 4 1 13 8 9 5 7 11 9 3 1 2 3 3 1 1 5 6 3 14 7 2 14 1 12 6 8 6 8 8 9 5 5 10 10 11 10
11 10 15 18 24 20 16 17 19 17 16 19 22 18 8 17 10 10 0 10 10 12 7 10 3 18 16 13 11 16 8 15 12 11 12 16 7 18 16 12 17 16 14 2 9 6 10 6 2 2 3 2 3 4 5 3 3 9 8 4 10 5 8 2 2 3 4 3 4 4 3 7 10 14 1 1 9 13 14 10 6 8 8 9 10 11 10 8
10 11 14 25 26 18 17 19 21 19 17 19 15 17 17 12 6 8 14 6 9 13 9 10 2 3 5 16 14 15 20 14 18 12 16 10 8 16 19 15 16 16 10 6 5 4 4 8 0 1 4 3 4 9 13 13 1 1 3 10 3 2 1 6 8 2 5 6 0 8 2 11 8 6 6 8 5 8 11 9 7 7 8 9 9 9 8 6
11 8 16 22 19 19 20 23 20 19 19 24 20 16 11 13 9 10 15 18 9 13 9 11 8 5 11 9 22 16 13 17 19 12 15 12 6 13 23 13 12 18 18 5 5 5 5 3 7 1 1 5 6 9 14 12 12 7 6 10 6 2 2 4 1 5 5 3 4 3 6 9 3 9 10 12 12 11 10 11 7 7 9 9 7 6 5 5
7 11 18 18 16 20 23 22 21 26 21 13 16 17 19 15 10 11 15 21 7 3 9 13 9 6 9 11 10 13 13 16 14 12 11 10 11 9 12 15 14 20 11 4 6 7 4 2 13 6 6 10 4 0 3 11 14 9 8 8 10 8 5 7 8 3 2 1 4 2 11 11 5 2 10 10 12 12 15 13 12 7 7 6 7 6 5 7
9 14 23 15 20 30 26 25 15 14 13 20 21 16 13 11 12 13 14 16 17 7 2 8 11 6 6 11 16 16 13 14 14 10 6 15 14 9 16 21 16 20 19 15 13 3 6 3 10 8 5 6 2 0 0 3 6 9 9 8 8 8 3 4 8 4 1 3 3 2 1 11 4 10 9 9 10 11 13 13 10 8 6 6 7 5 5 5
13 21 23 12 27 34 26 21 16 18 19 15 10 12 12 12 10 13 15 12 13 11 5 4 11 7 5 3 11 10 17 13 22 16 13 12 17 10 8 22 18 21 16 5 10 3 8 5 10 4 4 1 2 0 1 2 5 2 6 4 10 13 12 6 2 4 6 2 2 2 5 8 2 2 4 3 5 6 6 1 5 6 7 7 6 6 4 3
13 15 15 19 33 31 27 26 26 22 12 15 25 18 17 9 14 15 16 16 10 12 12 8 4 3 6 4 5 13 16 9 10 14 8 3 7 5 20 20 26 17 17 14 19 15 8 3 11 8 5 2 4 1 1 1 1 9 10 5 3 4 5 3 5 2 1 7 7 6 17 3 1 3 3 5 6 8 10 3 1 5 7 6 5 6 4 4
11 14 16 15 30 29 27 19 21 18 20 23 22 22 20 11 11 19 17 17 8 7 10 11 13 12 2 3 8 10 16 6 12 10 4 7 6 0 21 23 28 20 13 7 8 5 8 9 15 15 17 15 10 12 16 18 17 2 2 9 9 13 12 8 9 3 8 5 11 7 15 1 3 2 1 5 5 8 10 5 4 4 6 7 7 7 8 3
13 12 13 16 18 24 17 20 22 23 23 21 22 19 17 11 2 12 20 18 16 10 11 8 8 14 9 9 11 9 9 5 8 9 9 4 2 1 13 22 22 15 10 16 13 7 4 1 5 11 18 21 20 8 6 12 9 13 11 14 11 7 11 7 5 3 17 6 8 19 16 1 2 2 3 7 6 6 13 4 4 6 7 7 5 8 8 6
8 11 15 12 11 19 18 15 17 22 23 23 17 16 23 19 10 9 18 12 18 16 10 13 9 13 8 16 14 12 6 3 6 10 6 10 1 3 12 17 15 12 16 12 14 6 4 6 9 9 10 4 7 4 7 13 11 6 10 9 10 12 9 8 11 19 10 12 12 25 10 14 8 2 5 6 7 7 7 10 7 4 5 7 6 6 9 8
12 8 13 20 20 12 18 16 20 19 15 25 15 16 19 22 20 16 14 9 16 14 15 4 14 17 19 21 15 11 4 2 7 11 4 2 7 6 8 8 11 13 17 6 11 8 7 11 11 9 11 6 6 11 14 13 10 10 11 10 13 15 16 18 21 30 10 13 23 5 12 13 9 7 7 7 8 9 10 7 6 4 4 2 3 5 6 7
7 3 4 12 8 26 27 23 22 22 25 26 12 20 21 23 22 16 14 7 11 19 16 11 15 18 17 14 15 11 15 11 6 6 10 9 15 14 10 5 5 10 14 7 10 4 5 6 7 10 9 5 3 9 8 15 10 15 15 17 17 15 18 23 26 28 19 20 15 3 5 10 7 10 9 8 5 5 6 4 4 4 2 2 1 5 7 8
7 7 4 2 1 20 23 25 25 25 22 26 15 16 17 21 22 16 12 17 13 18 16 14 19 20 22 19 14 11 15 17 21 20 13 20 13 12 15 19 17 15 17 13 9 4 11 8 13 5 5 3 1 3 0 7 12 10 12 16 17 18 19 24 27 23 17 20 22 6 1 6 7 4 5 2 2 2 4 6 6 3 4 4 5 6 7 7
5 5 2 14 14 14 18 19 21 24 18 20 16 15 15 21 21 18 12 11 19 16 19 22 21 20 20 23 22 20 19 16 16 24 22 25 23 22 18 10 18 19 17 11 9 2 8 2 4 6 8 3 0 4 3 3 4 10 10 9 14 19 21 24 25 19 11 20 15 7 12 18 3 5 3 2 1 4 6 6 5 5 5 5 5 8 7 8
4 5 2 6 14 23 21 18 17 19 19 18 15 16 14 23 17 18 12 12 16 20 21 25 25 21 17 22 25 26 25 22 23 17 15 13 6 9 7 8 15 21 16 12 2 9 6 6 7 8 9 3 3 6 7 6 6 1 8 18 23 25 25 17 7 3 18 21 8 14 22 2 9 8 9 4 3 7 6 6 8 8 7 6 7 7 9 9
Wind_Direction
224 227 196 224 202 229 238 276 221 207 204 199 191 189 187 186 185 183 184 187 176 179 174 172 159 156 154 157 158 145 128 143 79 206 197 229 169 166 173 159 85 330 317 103 96 100 45 39 40 358 55 56 326 9 321 341 348 228 130 113 198 202 163 205 181 186 202 55 250 196 226 155 199 183 197 98 31 69 14 230 302 301 265 231 263 303 138 132
224 223 210 210 207 225 226 228 274 223 200 200 194 189 188 186 184 184 183 180 177 178 170 158 156 152 146 152 149 144 133 176 233 246 226 146 145 164 166 162 147 189 229 60 134 126 103 60 67 80 90 69 335 280 352 320 10 97 110 108 227 182 238 162 206 203 134 270 257 225 144 200 219 130 229 148 230 138 139 263 350 299 287 351 78 130 136 144
222 223 220 220 218 215 214 242 244 275 229 199 195 195 189 187 184 182 180 175 173 171 167 163 148 151 148 142 143 135 119 82 221 238 222 160 164 160 168 159 170 163 160 150 321 97 125 143 142 92 27 90 7 255 29 286 353 222 123 241 254 212 242 226 174 211 215 115 343 136 222 158 245 158 101 202 165 101 195 206 273 243 230 219 145 146 150 155
235 228 219 219 214 208 220 196 230 231 268 214 197 196 190 186 185 182 179 176 171 166 166 165 158 154 150 148 141 141 105 80 223 227 188 175 166 159 156 154 153 123 93 71 112 104 115 93 71 86 91 99 285 36 117 275 77 296 112 179 236 207 263 249 182 223 226 214 227 199 16 210 252 202 156 176 123 242 258 233 191 206 202 173 166 160 160 163
240 236 232 220 223 221 224 210 220 223 231 265 205 193 189 188 185 184 181 178 173 169 167 164 161 157 154 152 158 136 101 109 243 205 162 165 164 157 139 140 132 130 113 122 91 94 91 104 101 53 94 125 357 73 262 255 132 66 218 208 173 148 230 262 202 141 190 297 121 179 139 231 112 89 189 154 190 217 212 231 221 218 170 160 165 168 166 169
237 248 239 232 231 229 229 222 214 212 222 233 263 195 192 187 187 185 183 182 177 173 170 169 163 160 158 157 142 129 144 212 31 303 183 159 162 149 133 133 133 121 119 116 119 123 103 91 107 115 96 106 183 163 198 152 121 209 276 265 212 201 222 315 15 168 118 105 154 132 229 75 178 219 190 185 206 217 274 256 191 185 173 167 154 154 169 175
237 239 253 252 238 237 236 228 221 210 209 227 237 242 188 186 187 184 184 184 180 177 174 172 168 159 158 130 117 167 193 241 92 224 27 162 154 142 135 132 135 130 125 119 128 138 144 141 129 167 129 78 201 172 121 92 332 177 227 296 294 160 228 10 326 129 172 144 230 212 46 215 202 232 118 198 236 212 345 316 194 148 137 150 162 177 173 182
253 230 246 264 260 240 234 243 227 224 216 213 229 255 218 184 184 184 183 181 180 178 174 173 169 160 141 130 138 209 205 233 185 276 151 159 149 138 127 130 137 133 133 150 157 149 142 147 164 136 156 165 199 153 146 102 58 195 240 307 271 240 229 274 275 275 222 235 268 210 181 238 188 197 103 237 239 221 4 77 111 130 139 162 174 179 185 186
248 233 219 244 254 254 253 255 245 219 213 214 213 234 268 199 184 182 182 181 177 176 175 170 165 165 159 139 185 187 223 202 142 167 139 141 127 130 129 133 159 137 130 127 151 152 146 194 137 168 199 157 140 150 175 138 283 182 235 271 273 273 289 275 339 329 221 269 156 152 233 258 248 156 261 244 257 171 122 82 122 138 148 172 186 187 185 190
241 239 233 228 239 244 247 250 253 239 220 214 212 227 245 241 187 182 182 181 178 176 174 169 163 168 165 164 157 219 236 134 116 137 133 132 130 138 156 144 155 125 122 114 69 154 163 177 163 178 124 50 150 159 75 194 189 143 226 229 239 260 327 297 205 260 223 245 177 194 256 266 316 154 270 272 256 141 113 132 150 157 176 186 188 192 197 192
232 239 231 222 228 233 250 244 243 244 226 221 223 219 229 282 208 183 180 183 180 178 176 172 165 162 183 174 189 221 26 114 161 142 141 141 143 154 169 156 152 137 138 132 157 194 115 142 131 133 7 199 121 110 169 205 111 205 244 235 256 263 238 253 291 273 99 275 183 196 250 128 274 95 238 247 60 174 153 161 172 185 193 196 196 195 200 202
233 237 237 227 220 226 235 252 247 238 232 217 220 219 235 244 247 185 183 182 181 178 175 171 168 171 175 184 215 211 184 176 149 144 142 148 160 165 138 147 157 150 144 158 167 196 142 160 144 156 176 125 165 81 240 170 127 261 285 223 304 333 290 213 208 238 167 252 157 183 306 286 131 218 238 239 145 173 171 175 185 196 201 202 205 204 203 208
236 241 240 243 237 219 231 246 256 251 229 217 220 225 243 223 271 201 183 181 181 178 174 169 168 179 165 205 213 177 258 163 138 135 132 106 91 69 116 137 135 142 159 149 165 170 169 145 157 92 267 136 153 156 124 89 105 61 40 96 324 343 286 235 136 125 176 238 155 160 264 234 231 228 239 158 146 113 138 199 203 206 206 210 206 208 214 215
229 236 244 246 251 247 240 248 258 259 247 222 222 211 237 235 230 241 183 183 179 175 171 167 165 176 192 217 184 241 227 150 130 132 141 135 117 99 102 84 79 73 99 114 128 149 132 100 122 118 98 111 157 152 92 10 29 146 219 58 224 182 251 294 190 160 207 165 184 126 251 263 284 259 251 178 180 159 193 214 210 208 211 208 210 214 216 220
232 227 236 237 242 237 240 250 260 258 257 242 223 214 228 235 233 266 200 182 176 171 167 159 168 167 206 207 5 269 125 136 150 160 153 146 131 113 136 127 99 91 103 120 128 142 135 110 108 121 135 275 100 101 79 65 5 72 115 242 339 198 284 310 116 175 197 261 205 122 265 252 254 262 246 183 173 180 210 214 214 214 212 209 209 215 217 222
244 237 235 240 236 235 227 225 241 267 267 261 243 220 211 233 233 269 236 182 177 168 156 168 177 195 158 205 194 135 141 163 183 159 177 146 154 157 144 116 106 95 102 54 116 127 145 144 144 166 118 64 129 125 113 92 124 336 200 300 213 167 257 344 328 295 304 99 304 201 242 342 295 255 170 227 186 190 211 224 218 219 218 211 212 214 220 225
253 246 241 235 237 240 241 231 224 237 266 263 258 238 216 230 245 241 286 195 174 165 167 176 174 184 210 4 111 158 176 173 131 142 153 156 131 126 120 116 112 107 84 86 109 126 178 131 194 94 40 141 158 146 102 210 66 225 137 215 191 205 123 232 316 209 235 277 233 245 254 226 266 300 251 122 187 194 248 237 226 223 220 217 216 218 220 222
262 258 248 235 237 240 244 244 235 226 246 264 252 247 230 201 232 283 308 233 162 168 167 116 163 158 240 167 169 187 156 130 161 151 137 152 136 142 140 134 122 126 125 105 156 148 224 131 224 187 138 169 154 169 185 202 191 193 181 190 236 210 202 213 158 248 67 329 268 271 249 261 278 297 252 204 176 185 222 236 249 257 251 239 224 224 228 226
265 264 259 246 243 244 251 261 246 237 256 264 255 255 241 158 197 152 269 231 176 152 179 180 169 200 191 193 186 137 154 158 131 140 150 129 143 112 68 82 134 136 146 148 190 151 161 85 61 138 198 177 187 182 205 215 202 206 177 200 169 208 203 219 277 277 136 272 251 243 245 241 252 254 270 223 171 178 228 244 254 240 230 235 232 234 232 229
260 266 265 254 239 244 254 264 265 251 246 253 271 261 210 219 78 274 189 236 207 188 189 167 185 162 39 120 118 121 102 125 131 171 127 137 135 131 107 133 136 121 148 170 149 190 148 161 190 203 195 187 192 200 178 151 142 137 158 173 214 214 232 139 212 304 31 315 249 247 267 254 248 243 247 259 149 214 244 246 235 234 224 223 228 230 231 233
256 260 266 267 256 246 247 255 267 266 254 218 229 211 223 168 174 228 215 242 234 216 200 176 181 167 153 142 137 130 128 144 148 151 155 153 142 129 150 136 147 143 213 145 146 141 174 191 209 199 193 190 196 191 131 125 136 155 170 183 221 186 227 204 258 325 344 164 287 274 281 266 254 263 259 268 165 231 221 230 238 237 229 227 227 236 233 235
251 257 262 265 262 252 243 243 256 271 263 199 224 224 266 228 151 13 131 238 245 222 207 193 179 45 138 144 152 147 143 131 129 156 162 156 168 147 187 160 163 158 130 114 98 147 195 209 190 177 170 163 184 180 165 165 166 168 170 178 200 230 85 277 284 311 293 178 259 252 261 264 254 246 258 253 241 239 221 211 225 222 233 233 229 236 244 249
251 252 256 262 267 266 254 244 245 254 261 223 231 237 243 25 26 74 44 303 306 208 196 187 177 133 137 140 151 135 140 163 160 171 176 172 169 179 158 166 167 145 148 155 157 168 198 227 174 160 148 172 183 176 158 152 150 155 118 147 216 125 163 270 224 315 276 193 275 328 301 274 268 253 253 260 237 250 245 223 232 210 219 227 226 221 228 238
254 251 255 257 266 271 276 257 262 272 236 234 239 231 42 22 69 23 338 245 289 230 194 193 172 158 157 156 176 163 161 168 146 168 175 165 164 145 158 166 150 152 174 179 173 175 202 149 149 162 180 181 181 173 167 170 199 203 182 182 139 140 156 168 226 292 287 305 177 281 291 276 236 253 263 259 244 232 251 235 253 247 234 234 248 269 229 231
258 255 254 260 260 273 274 312 255 219 223 239 242 240 194 335 50 113 188 274 269 282 131 208 187 162 156 20 164 165 143 113 171 162 172 162 143 138 176 154 146 176 172 174 145 183 304 191 131 144 157 160 154 184 191 170 206 201 243 177 149 137 128 77 11 24 14 299 194 156 316 259 212 220 229 243 245 240 245 231 241 239 230 233 237 236 237 240
263 259 254 254 261 264 328 272 191 182 203 233 234 211 169 192 99 3 188 228 280 195 161 210 138 199 131 163 154 158 150 174 160 158 166 176 162 155 142 172 177 176 170 169 173 188 173 177 163 168 162 169 178 194 195 166 192 172 216 137 143 136 141 115 266 79 252 230 271 105 223 267 42 241 222 227 246 246 251 231 238 239 240 230 230 234 234 228
260 259 253 245 243 227 217 231 140 155 213 238 229 133 179 160 108 205 182 216 251 175 193 121 186 182 169 166 154 136 183 164 109 144 167 182 165 191 152 170 159 99 152 145 68 221 143 157 153 153 157 169 178 204 195 176 155 224 134 137 134 128 147 184 143 155 262 291 283 189 211 272 278 249 214 240 253 258 260 253 238 239 236 237 231 232 231 228
260 258 256 249 243 213 217 268 180 192 218 185 131 178 149 122 115 219 206 211 239 119 200 178 236 142 181 159 155 165 69 125 149 187 169 165 148 185 173 168 172 159 164 162 188 38 138 154 162 162 171 173 203 186 128 168 169 215 171 133 166 163 177 158 142 165 219 359 274 229 32 308 250 282 176 178 256 252 245 247 250 240 237 239 237 235 232 230
263 260 256 252 234 240 243 233 234 246 223 118 139 132 123 124 158 211 211 221 113 132 308 159 52 160 143 152 171 158 138 161 137 153 157 72 10 160 172 177 147 151 166 180 168 75 256 177 175 163 163 197 169 140 156 163 173 203 159 151 137 110 81 124 128 140 258 147 254 196 162 233 274 217 205 191 235 249 238 236 247 238 233 233 235 236 235 236
272 267 261 253 255 254 251 239 236 236 223 121 164 133 122 124 184 215 208 228 103 190 234 110 166 170 151 159 162 147 144 147 63 133 151 150 168 23 38 128 136 139 155 254 86 177 161 112 151 151 197 167 127 139 161 173 143 127 114 100 98 55 77 31 84 164 32 254 270 114 199 144 295 215 208 178 222 240 275 263 259 261 247 247 240 242 245 239
271 267 261 250 221 205 222 243 242 231 179 187 119 150 147 174 235 209 220 190 69 248 87 175 162 149 165 167 156 164 137 134 138 143 138 130 125 185 130 88 67 89 146 182 138 89 82 127 152 248 115 92 121 91 136 160 137 138 145 129 116 38 58 57 286 43 191 251 69 173 156 142 231 283 207 220 241 184 197 220 238 249 241 235 232 228 237 243
271 270 264 254 219 205 220 237 239 138 185 156 140 167 158 216 212 231 205 107 179 175 154 158 166 157 169 170 156 161 152 135 154 157 153 161 154 162 179 156 163 149 181 183 186 102 77 165 275 31 283 145 154 132 87 168 152 147 135 142 143 166 84 254 77 228 214 234 195 81 148 106 234 238 318 304 272 271 239 223 222 231 240 236 248 242 240 247
271 270 265 254 241 231 234 241 220 148 179 169 169 177 200 212 224 208 292 149 247 142 181 204 171 167 168 169 176 153 149 155 163 165 153 165 156 176 177 166 170 162 165 181 147 116 273 161 215 185 92 203 153 157 140 152 200 168 170 157 145 150 179 211 203 339 316 270 252 137 125 256 268 299 206 238 271 252 231 226 234 242 249 250 235 259 270 258
275 275 275 248 239 237 243 241 217 221 185 171 190 182 216 215 225 159 204 262 267 350 147 173 202 172 167 182 168 152 165 164 159 169 157 156 158 161 169 187 178 148 73 147 168 176 158 206 224 171 199 178 172 178 174 150 172 192 170 181 186 155 171 199 176 192 207 201 182 270 107 231 146 253 237 205 213 239 247 256 248 242 249 258 272 281 279 273
279 278 268 261 250 244 241 228 217 216 193 179 195 204 205 223 193 201 203 122 286 300 166 159 176 184 178 172 154 174 149 166 170 153 170 159 176 165 172 179 195 142 137 139 213 137 195 189 291 164 135 154 173 175 147 122 132 217 173 68 234 234 127 151 198 160 212 177 296 205 209 199 188 250 263 230 283 289 287 274 242 268 261 251 267 251 246 248
283 269 252 251 236 244 230 217 211 216 197 195 198 207 217 195 206 142 213 112 150 157 166 171 171 187 180 175 154 175 301 151 174 153 168 177 172 174 176 173 180 172 162 167 155 161 70 229 38 55 106 159 180 135 185 149 171 188 141 211 207 165 118 94 45 93 89 50 247 126 298 272 312 289 268 275 206 280 286 283 284 264 245 235 251 251 243 241
270 268 252 242 240 236 217 200 202 206 202 202 203 217 201 222 207 111 179 184 157 139 205 175 190 168 183 175 168 181 139 108 162 159 165 155 182 186 171 178 176 175 191 146 160 265 165 160 34 149 175 209 120 173 170 189 134 118 201 206 98 116 118 140 209 11 139 197 260 126 233 273 83 277 247 235 244 258 253 255 250 259 279 226 243 244 240 236
268 254 255 247 237 231 202 193 196 201 207 200 209 209 183 218 188 156 240 147 148 160 188 209 179 179 172 155 186 160 177 157 178 159 153 177 175 172 175 175 187 189 179 194 136 200 120 87 231 325 122 167 82 118 164 216 15 181 198 150 159 216 233 260 101 242 181 233 266 288 258 265 207 235 357 300 231 250 262 254 245 265 252 243 249 250 248 245
262 263 258 243 237 216 192 184 196 200 200 205 198 197 208 213 158 177 177 171 147 152 197 228 115 236 155 175 152 158 166 176 170 169 151 200 171 186 183 167 181 185 171 145 124 162 86 124 72 345 135 202 135 171 189 191 213 77 116 184 206 87 293 150 200 184 110 237 39 289 32 257 188 230 180 239 236 243 259 271 256 236 247 246 247 246 245 247
258 252 251 240 221 194 182 181 194 199 204 209 190 213 179 204 191 183 170 158 183 165 199 199 237 179 185 178 156 158 184 161 171 180 174 174 186 166 187 193 165 172 175 158 126 176 152 123 142 181 236 138 171 207 201 174 171 183 162 183 190 204 254 118 174 166 179 177 184 273 305 262 269 196 184 207 221 247 247 253 239 248 253 249 253 264 272 257
226 249 260 235 190 173 173 182 190 197 199 200 201 199 190 197 165 197 184 169 166 221 180 195 196 197 181 144 192 164 159 166 168 171 178 167 168 155 203 182 164 169 149 75 112 179 106 155 144 156 127 201 218 185 176 173 189 194 178 190 190 161 186 174 241 48 117 150 242 164 261 268 257 206 193 194 220 221 246 249 258 244 246 257 266 266 263 288
226 235 248 220 177 164 173 186 191 180 194 194 200 182 191 159 182 194 194 189 167 180 10 176 199 188 209 191 162 172 152 165 175 173 211 173 189 185 183 177 166 159 161 181 176 182 135 99 116 151 194 156 128 321 207 286 187 191 183 214 177 189 123 195 204 243 34 244 111 155 313 282 231 184 200 206 210 222 228 241 242 265 272 264 265 258 265 245
226 238 257 197 169 166 171 191 169 180 196 195 164 202 189 196 173 180 186 196 191 171 145 174 187 175 259 214 185 171 163 163 173 188 176 185 193 181 164 162 151 170 170 144 72 240 96 106 116 64 73 324 354 250 322 274 144 175 253 195 166 197 198 170 138 184 172 222 201 268 268 251 322 309 244 280 267 260 276 329 231 261 272 286 283 289 288 307
246 253 250 183 169 168 174 182 175 173 161 172 197 194 188 184 169 171 187 194 188 175 177 160 131 212 187 227 208 175 173 136 211 174 179 143 177 160 155 159 161 170 174 181 168 193 132 220 117 113 69 352 357 0 306 286 228 212 203 182 174 102 140 161 102 80 228 211 158 135 241 297 252 331 292 268 289 270 261 278 254 268 283 283 296 289 278 265
265 235 206 182 167 171 184 176 169 167 173 183 183 189 184 191 193 177 174 183 204 179 154 194 173 146 161 216 211 189 189 180 156 214 111 168 157 1 162 165 170 175 190 141 74 105 75 170 146 154 161 170 184 196 196 196 199 147 82 154 189 176 164 142 199 152 236 191 164 203 245 47 282 310 308 269 295 298 275 241 259 238 268 294 320 309 284 273
226 238 164 173 173 169 181 174 170 166 169 174 182 192 177 183 161 205 173 177 187 180 184 143 159 164 166 166 191 200 190 343 177 163 146 145 115 207 177 167 173 173 147 129 146 154 120 139 189 176 174 185 195 186 36 78 84 187 197 175 182 177 172 158 129 162 231 184 185 236 226 47 143 185 246 260 260 247 275 254 211 261 263 272 260 272 281 295
276 226 164 172 143 172 169 171 166 163 178 166 179 173 185 182 155 198 199 179 191 175 175 174 149 160 180 175 185 185 180 52 60 133 162 132 25 131 163 167 164 154 144 143 162 110 106 167 205 181 212 179 106 138 146 135 164 165 127 173 157 155 162 164 191 225 197 91 230 240 199 226 227 280 262 259 264 265 273 282 253 219 272 260 259 277 296 298
231 246 194 167 155 155 154 182 166 171 154 172 177 164 177 178 178 183 195 212 171 196 173 178 173 178 168 176 165 177 160 82 135 149 122 62 103 106 122 174 163 168 154 172 176 170 157 185 201 171 208 169 131 142 149 147 156 157 160 149 163 170 177 189 212 228 172 190 230 234 159 214 218 221 226 229 227 224 236 257 276 229 212 263 283 281 278 273
243 262 176 188 186 158 165 157 162 163 170 178 166 177 177 183 186 182 177 184 199 192 183 167 183 176 178 177 172 163 161 148 169 151 155 160 150 146 142 153 209 181 162 157 183 179 145 221 180 185 186 136 181 154 159 147 161 163 174 176 182 178 192 205 219 228 205 226 225 133 190 200 195 211 210 231 227 244 261 274 303 318 300 305 282 265 259 259
242 180 156 356 72 162 151 154 161 162 175 177 173 187 177 183 185 178 174 176 189 198 177 184 177 176 174 175 178 176 198 187 162 170 174 152 159 167 169 176 162 191 173 176 172 237 174 208 145 158 138 164 44 41 69 138 145 181 192 183 182 187 201 213 223 230 218 239 240 210 24 274 270 220 251 267 303 298 316 281 266 288 286 256 253 257 256 258
264 287 232 158 151 164 147 155 163 168 167 179 182 171 181 183 190 180 188 191 182 183 186 186 172 174 178 179 182 192 192 202 184 177 168 159 172 181 164 206 163 160 172 173 183 189 179 244 110 121 150 227 1 124 93 60 135 166 187 194 195 197 206 217 219 219 195 231 231 253 269 246 198 248 255 287 301 258 258 273 293 271 243 231 230 246 254 256
257 241 156 182 157 162 153 159 163 160 184 180 173 168 176 183 180 171 181 204 199 187 183 179 176 172 181 184 195 197 192 190 192 186 173 171 100 69 70 123 166 163 164 165 103 156 162 125 136 149 169 202 340 127 104 90 69 337 221 202 202 208 211 223 250 169 208 220 193 212 236 109 162 197 230 256 230 247 246 249 254 251 237 211 218 233 244 250